{"data":{"norad_id":68667,"epoch":"2026-05-25T03:32:56.061312Z","epoch_age_seconds":62208,"freshness":"FRESH","line1":"1 68667U 26077F   26145.14787108  .00023823  00000+0  73773-3 0  9996","line2":"2 68667  97.2839  16.6947 0000911  92.3904 267.7443 15.33452740  6872","mean_motion":15.3345274,"eccentricity":9.11e-5,"inclination_deg":97.2839,"raan_deg":16.6947,"arg_perigee_deg":92.3904,"mean_anomaly_deg":267.7443,"bstar":0.00073773,"rev_number":687,"period_min":93.905730671556,"perigee_km":464.89668861457,"apogee_km":466.14360294653,"semimajor_km":6843.6571457805,"source":"CELESTRAK","updated_at":"2026-05-25T13:38:21.992177Z"}}